{"data":{"norad_id":49297,"intl_designator":"2021-090U","name":"ONEWEB-0371","alt_names":[],"object_type":"PAYLOAD","status":"ACTIVE","operator":null,"country":"UK","launch_date":"2021-10-14","launch_site_code":"VOSTO","launch_vehicle":null,"mission":null,"orbit_class":"UNKNOWN","rcs_meters":null,"size_class":null,"mass_kg":null,"dimensions":null,"purposes":["comms"],"wikipedia_slug":null,"has_3d_model":false,"image_url":null,"decayed_at":null,"tle_current":{"epoch":"2026-09-20T00:52:49.354176Z","epoch_age_seconds":65876,"freshness":"FRESH","line1":"1 49297U 21090U   26263.03668234  .00000018  00000+0  13507-4 0  9992","line2":"2 49297  87.9107 286.0714 0002160  91.5875 268.5505 13.19726223238962","mean_motion":13.19726223,"eccentricity":0.000216,"inclination_deg":87.9107,"raan_deg":286.0714,"arg_perigee_deg":91.5875,"mean_anomaly_deg":268.5505,"bstar":1.3507e-5,"rev_number":23896,"period_min":109.11353998306,"perigee_km":1184.132075956,"apogee_km":1187.3996819997,"semimajor_km":7563.9028789779,"source":"CELESTRAK","updated_at":"2026-09-20T09:00:44.672324Z"}}}